Location: Góry Miechowskie
(50.3599°N, 20.1803°E)
Time: 21:54:02
(UTC+00:00)

Tiros 1 despin weight - Pass Details

Date: 13 September 2024
Orbit: 572 x 614 km, 48.2° (Epoch: 12 October)

Event Time Altitude Azimuth Distance (km) Brightness Sun altitude
Rises 03:32:39 0° 236° (SW) 2,873 - -7.1°
Exits shadow 03:34:13 - 233° (SW) 2,280 ? -6.8°
Reaches altitude 10° 03:35:02 10° 230° (SW) 1,974 ? -6.7°
Maximum altitude 03:39:20 43° 159° (SSE) 865 ? -6.0°
Drops below altitude 10° 03:43:39 10° 88° (E) 1,981 ? -5.3°
Sets 03:46:02 0° 82° (E) 2,886 ? -5.0°
